Location: Kra?nica
(53.4833°N, 14.6167°E)
Time: 16:32:51
(UTC+00:00)

ATLAS 2AS CENTAUR R/B - Pass Details

Date: 23 May 2024
Orbit: 1017 x 1194 km, 63.7° (Epoch: 12 June)

Event Time Altitude Azimuth Distance (km) Brightness Sun altitude
Rises 01:30:44 0° 312° (NW) 3,925 5.7 -8.9°
Reaches altitude 10° 01:33:27 10° 312° (NW) 2,939 5.1 -8.7°
Maximum altitude 01:40:24 87° 226° (SW) 1,062 2.7 -8.0°
Drops below altitude 10° 01:47:04 10° 137° (SE) 2,822 4.9 -7.4°
Sets 01:49:38 0° 137° (SE) 3,759 5.5 -7.2°
